Погода Ворогово

Погода Ворогово : погода сейчас, прогноз погоды и архив. Всё, что Вы хотите узнать о погоде Ворогово!

Хотите узнать прогноз погоды Ворогово? Тогда Вам сюда: Погода Ворогово

Поиск расширенной информации на нашем сайте:

Другие новости

Новости СМИ2

Главная страница сайта

Новости сайта

02.10.2013

Напоминаем, что на нашем новом сайте вы можете получить высокодетализированные прогнозы погоды по пунктам России, СНГ и мира (включающие важные для авиации метеовеличины, такие как направление и скорость ветра, видимость, явления погоды, количество и форма облачности, нижняя и верхняя граница облачности), а также ознакомиться с разнообразными материалами по авиационной метеорологии и подборкой полезных ссылок на эту тему.

Сайт Метеоцентр.Азия посвящён разработке технологий оптимизации авиаметеорологического обслуживания, включая проектирование и перспективное создание нескольких автоматизированных авиаметеорологических систем:
- система выпуска высокодетальных прогностических карт явлений погоды для нижнего воздушного пространства по России и ближнему зарубежью;
- система верификации прогнозов TAF (выпускаемых синоптиками официальных АМСГ РФ и ближнего зарубежья) и AUTOTAF (выпускаемых сайтом Метеоцентр.Азия) - выявление ошибок, онлайн-сопоставление с фактической погодой METAR, автоматическое внесение коррективов в прогнозы при резком отклонении фактической погоды от прогноза, подсчёт оправдываемости прогнозов по элементам и в целом;
- система обработки, анализа и отображения авиаметеорологической информации для применения провайдерами метеорологической информации.

Рекомендуем: срочно снять финскую сауну

Погода Ворогово - сегодня

Время (UTC), дата Ветер
(°,м/с) 
Видим.   Явления Облачность Т
(°С)
Тd
(°С)
f(%) Тe
(°С)
Pmin
(гПа)
dP
(гПа)
Po
(мм)
O2
(г/м3)
Тmin Tmax R s Состояние
почвы
18 14.01.17 310 (СЗ) н/о    н/о 
-32.5 -35.9 72 -33  1033.5  0.1  770  354           
21 14.01.17 320 (СЗ) н/о    н/о 
-34.3 -37.9 70 -35  1033.9  0.3  770  357           
00 15.01.17 340 (С) н/о    н/о 
-35.6 -39.3 69 -40  1034.2  0.3  770  359  -36         
03 15.01.17 350 (С) н/о    н/о 
-33.6 -37.1 71 -40  1034.6  0.5  771  356  -36.2         
06 15.01.17 340 (С) н/о    н/о 
-31 -34.3 73 -35  1034.8  0.2  771  352           
09 15.01.17 350 (С) н/о    н/о 
-29 -32 75 -33  1036.3  1.5  772  350           
12 15.01.17 010 (С) н/о    н/о 
-31.3 -34.5 73 -35  1037.9  1.6  773  354    -29       
15 15.01.17 190 (Ю) н/о    н/о 
-35.3 -38.9 70 -40  1039  774  360           
18 15.01.17 190 (Ю) н/о    н/о 
-37.6 -41.6 66 -39  1040.1  775  364           
21 15.01.17 170 (Ю) н/о    н/о 
-37.6 -41.6 66 -42  1041.3  1.1  776  365           
00 16.01.17 200 (Ю) н/о    н/о 
-38.1 -42.2 65 -39  1042.5  1.3  776  366  -39.2         
03 16.01.17 210 (ЮЗ) н/о    н/о 
-39.4 -43.6 64 -41  1043.5  0.9  777  368  -40.3         
06 16.01.17 180 (Ю) н/о    н/о 
-37.4 -41.6 65 -42  1043.3  0.1  777  365           
09 16.01.17 180 (Ю) н/о    н/о 
-35.9 -39.9 67 -37  1043.7  0.4  777  363           
12 16.01.17 тихо ()   н/о    н/о 
-36.8 -40.8 66 -37  1044.5  0.8  778  364    -34.8       
15 16.01.17 180 (Ю) н/о    н/о 
-37.7 -41.8 66 -39  1044.6  778  366           
18 16.01.17 190 (Ю) н/о    н/о 
-36.3 -40.3 66 -37  1044.6  0.1  778  364           
21 16.01.17 180 (Ю) н/о    н/о 
-33.9 -37.6 69 -40  1044.5  778  360           
00 17.01.17 180 (Ю) н/о    н/о 
-33.7 -37.4 69 -40  1044.5  0.1  778  360  -38         
03 17.01.17 180 (Ю) н/о    н/о 
-32.3 -35.8 71 -38  1044.4  0.1  778  358           
06 17.01.17 180 (Ю) н/о    н/о 
-29 -32.1 74 -36  1042.7  -1.5  777  352           
09 17.01.17 180 (Ю) 5{11}  н/о    н/о 
-27.3 -30.3 76 -35  1040.6  -2  775  349           
12 17.01.17 170 (Ю) 7-11{12}  н/о    н/о 
-25.8 -28.7 77 -35  1037.8  -2.8  773  346    -25.7       
15 17.01.17 180 (Ю) 8-14{14}  н/о    н/о 
-24.9 -27.7 78 -35  1034.4  -3.3  771  344           
18 17.01.17 180 (Ю) 7-10{14}  н/о    н/о 
-24.5 -27.2 78 -33  1031.5  -2.9  768  342           
Время (UTC), дата Ветер
(°,м/с) 
Видим.   Явления Облачность Т
(°С)
Тd
(°С)
f(%) Тe
(°С)
Pmin
(гПа)
dP
(гПа)
Po
(мм)
O2
(г/м3)
Тmin Tmax R s Состояние
почвы

Для получения пояснительной информации подведите курсор к названию столбца.

ПОГОДА Ворогово - архив

Всё, что Вы хотите узнать о погоде Ворогово - удобно и подробно!

Выберите нужную дату (начиная с 1 января 2015* года) и нажмите кнопку "Найти".
Будут отображены архивные сводки погоды по пункту Ворогово, начиная с указанной даты.


Отображать данные в формате CSV (для использования в таблицах Excel)


Внимание! Наш архив погоды предназначен исключительно для личного некоммерческого использования в познавательных целях. Если Вам необходимы официальные справки о состоянии погоды (для производственных, юридических, коммерческих и т.п. целей), обращайтесь в органы Росгидромета.

*Примечание: данная дата относится к архиву по метеостанциям СССР (Россия, СНГ, Балтия).
Архив по метеостанциям Зарубежной Европы и Азии (кроме Китая) хранится 10 дней, по другим регионам земного шара (Китай, Африка, Америка, Австралия, Океания) - 1 день.

Ворогово - район местоположения метеостанции


Название, широта, долгота, высота метеостанции:
Ворогово 61°ш. 89.6°д. 49 м над ур. моря [Российская Федерация]

Дополнительная информация

В oтличие oт бoльшинства пoгoдных сайтoв мы публикуем пoдрoбную метеoинфoрмацию в детальнoм прoфессиoнальнoм фoрмате.

Характеристики температуры и влажнoсти вoздуха измеряются на высoте 2 м в тени вдали oт зданий и деревьев.
Скoрoсть ветра измеряется на высoте 10 м (на урoвне рoста челoвека скoрoсть ветра ниже в 1.5-2 раза). Если метеoстанция нахoдится в гoрoде или в лесу, тo скoрoсть ветра занижена на 2-4 м/с пo сравнению с oткрытым местoм. Скoрoсть ветра над акватoриями крупных рек и oзёр, а также на вершинах хoлмoв на 2-5 м/с выше, чем в oбычных услoвиях.
Атмoсфернoе давление в разных тoчках местнoсти мoжет значительнo oтличаться oт давления на метеoстанции, в зависимoсти oт услoвий рельефа (при пoдъёме на 10 м давление пoнижается примернo на 1 мм рт.ст.).